LY3FF-10 Weather Reports


time (UTC)temp
C
wind
direction
speed
KPH
gust
KPH
rain 1hr
cm
rain 24hr
cm
rain mn
cm
humidity
%
barometer
mb
20260508125120 10 0.0 0.0 0.00 0.00 0.00 70 997.1
20260508121222 10 0.0 0.0 0.00 0.00 0.00 70 997.3
20260508103717 10 0.0 0.0 0.00 0.00 0.00 68 996.9
20260508101140 10 0.0 0.0 0.00 0.00 0.00 70 996.9
20260508095834 9 0.0 0.0 0.00 0.00 0.00 71 996.9
20260508090058 9 0.0 0.0 0.00 0.00 0.00 72 996.8
20260508084742 9 0.0 0.0 0.00 0.00 0.00 72 996.6
20260508083401 9 0.0 0.0 0.00 0.00 0.00 73 996.7
20260508080738 8 0.0 0.0 0.00 0.00 0.00 74 996.5
20260508075423 5 0.0 0.0 0.00 0.00 0.00 12 996.6
20260508073927 8 0.0 0.0 0.00 0.00 0.00 76 996.4
20260508072607 8 0.0 0.0 0.00 0.00 0.00 76 996.3
20260508064548 8 0.0 0.0 0.00 0.00 0.00 79 996.0
20260508054924 7 0.0 0.0 0.00 0.00 0.00 81 995.9
20260508053605 7 0.0 0.0 0.00 0.00 0.00 82 996.0
20260508051028 7 0.0 0.0 0.00 0.00 0.00 83 995.8
20260508045817 7 0.0 0.0 0.00 0.00 0.00 83 995.8
20260508043047 7 0.0 0.0 0.00 0.00 0.00 83 995.6
20260508040304 7 0.0 0.0 0.00 0.00 0.00 83 995.3
20260508035002 7 0.0 0.0 0.00 0.00 0.00 83 995.2
20260508030920 7 0.0 0.0 0.00 0.00 0.00 83 995.0
20260508022916 7 0.0 0.0 0.00 0.00 0.00 83 994.8
20260508021657 7 0.0 0.0 0.00 0.00 0.00 83 994.8
20260508014912 7 0.0 0.0 0.00 0.00 0.00 83 994.6
20260508013632 7 0.0 0.0 0.00 0.00 0.00 82 994.5
20260508012405 8 0.0 0.0 0.00 0.00 0.00 82 994.6
20260508005629 8 0.0 0.0 0.00 0.00 0.00 81 994.7
20260508004218 8 0.0 0.0 0.00 0.00 0.00 81 994.7
20260508001457 8 0.0 0.0 0.00 0.00 0.00 81 994.6
20260508000131 8 0.0 0.0 0.00 0.00 0.00 81 994.5
20260507232010 8 0.0 0.0 0.00 0.00 0.00 80 994.3
20260507225432 9 0.0 0.0 0.00 0.00 0.00 80 994.2
20260507224014 9 0.0 0.0 0.00 0.00 0.00 80 994.1
20260507221415 9 0.0 0.0 0.00 0.00 0.00 80 994.1
20260507213449 9 0.0 0.0 0.00 0.00 0.00 80 993.8
20260507210842 9 0.0 0.0 0.00 0.00 0.00 79 993.7
20260507205451 9 0.0 0.0 0.00 0.00 0.00 80 993.5
20260507201301 9 0.0 0.0 0.00 0.00 0.00 79 993.1
20260507194607 10 0.0 0.0 0.00 0.00 0.00 79 993.1
20260507193343 9 0.0 0.0 0.00 0.00 0.00 79 992.9
20260507192124 10 0.0 0.0 0.00 0.00 0.00 79 992.7
20260507190712 10 0.0 0.0 0.00 0.00 0.00 79 992.5
20260507185350 10 0.0 0.0 0.00 0.00 0.00 79 992.5
20260507181129 10 0.0 0.0 0.00 0.00 0.00 80 992.1
20260507175632 10 0.0 0.0 0.00 0.00 0.00 80 992.2
20260507171739 11 0.0 0.0 0.00 0.00 0.00 81 991.7
20260507170424 11 0.0 0.0 0.00 0.00 0.00 80 991.4
20260507165127 11 0.0 0.0 0.00 0.00 0.00 79 991.3
20260507155913 13 0.0 0.0 0.00 0.00 0.00 80 991.1
20260507154637 13 0.0 0.0 0.00 0.00 0.00 79 991.1
20260507151959 12 0.0 0.0 0.00 0.00 0.00 77 990.7
20260507150709 14 0.0 0.0 0.00 0.00 0.00 75 990.6
20260507145316 14 0.0 0.0 0.00 0.00 0.00 73 990.6
20260507144027 15 0.0 0.0 0.00 0.00 0.00 71 990.3
20260507142749 16 0.0 0.0 0.00 0.00 0.00 70 990.0
20260507134957 18 0.0 0.0 0.00 0.00 0.00 67 989.6
20260507132308 17 0.0 0.0 0.00 0.00 0.00 67 989.2